Weather History for KSPS - January, 2014

Change the Weather History Date:

Wednesday, January 29, 2014

  Actual Average Record
Temperature  
Mean Temperature 32 °F 43 °F  
Max Temperature 49 °F 55 °F 80 °F (1967)
Min Temperature 14 °F 31 °F 6 °F (1966)
Degree Days  
Heating Degree Days 33 22  
Month to date heating degree days 688 670  
Since 1 July heating degree days 2061 1867  
Moisture  
Dew Point 8 °F    
Average Humidity 44    
Maximum Humidity 73    
Minimum Humidity 15    
Precipitation  
Precipitation 0.00 in 0.04 in 2.11 in (1999)
Month to date precipitation T 1.06  
Year to date precipitation T 1.06  
Snow  
Snow 0.00 in 0.00 in - ()
Month to date snowfall 0.0 1.3  
Since 1 July snowfall 0.7 2.6  
Snow Depth 0.00 in    
Sea Level Pressure  
Sea Level Pressure 30.26 in    
Wind  
Wind Speed 12 mph (SSW)    
Max Wind Speed 23 mph    
Max Gust Speed 28 mph    
Visibility 10 miles    
Events      
T = Trace of Precipitation, MM = Missing Value Source: NWS Daily Summary

Daily Weather History Graph

Daily Weather History Graph

Search for Another Location

Airport or City:

Trip Planner

Search our weather history database for the weather conditions in past years. The results will help you decide how hot, cold, wet, or windy it might be!

Date:

Astronomy

Jan. 29, 2014 Rise Set
Actual Time 7:32 AM CST 6:01 PM CST
Civil Twilight 7:06 AM CST 6:28 PM CST
Nautical Twilight 6:36 AM CST 6:58 PM CST
Astronomical Twilight 6:06 AM CST 7:27 PM CST
Moon 6:10 AM CST (1/29) 5:02 PM CST (1/29)
Length of Visible Light 11h 21m
Length of Day
10h 28m
Waning Crescent, 2% of the Moon is Illuminated
Jan 29
Waning Crescent
Jan 30
New
Feb 6
First Quarter
Feb 14
Full
Feb 22
Last Quarter

Hourly Weather History & Observations

Time (CST) Temp. Windchill Dew Point Humidity Pressure Visibility Wind Dir Wind Speed Gust Speed Precip Events Conditions
12:52 AM 16.0 °F 6.3 °F 7.0 °F 68% 30.43 in 10.0 mi SSW 6.9 mph - N/A   Clear
1:52 AM 18.0 °F 8.7 °F 7.0 °F 62% 30.42 in 10.0 mi SW 6.9 mph - N/A   Clear
2:52 AM 17.1 °F 6.6 °F 7.0 °F 65% 30.40 in 10.0 mi SW 8.1 mph - N/A   Clear
3:52 AM 17.1 °F 8.7 °F 7.0 °F 65% 30.38 in 10.0 mi SSW 5.8 mph - N/A   Clear
4:52 AM 17.1 °F 6.6 °F 8.1 °F 68% 30.38 in 10.0 mi SW 8.1 mph - N/A   Clear
5:52 AM 16.0 °F 4.4 °F 8.1 °F 71% 30.38 in 10.0 mi SSW 9.2 mph - N/A   Clear
6:52 AM 14.0 °F 2.0 °F 7.0 °F 74% 30.39 in 10.0 mi SW 9.2 mph - N/A   Clear
7:52 AM 15.1 °F 3.3 °F 8.1 °F 74% 30.39 in 10.0 mi SSW 9.2 mph - N/A   Clear
8:52 AM 23.0 °F 14.7 °F 10.0 °F 58% 30.37 in 10.0 mi SSW 6.9 mph - N/A   Clear
9:52 AM 30.0 °F 20.5 °F 9.0 °F 41% 30.38 in 10.0 mi SW 11.5 mph - N/A   Clear
10:52 AM 37.0 °F 28.5 °F 7.0 °F 29% 30.37 in 10.0 mi SSW 13.8 mph - N/A   Clear
11:52 AM 39.9 °F 30.8 °F 6.1 °F 25% 30.34 in 10.0 mi South 18.4 mph 21.9 mph N/A   Clear
12:52 PM 43.0 °F 34.8 °F 5.0 °F 21% 30.30 in 10.0 mi South 18.4 mph 24.2 mph N/A   Clear
1:52 PM 46.0 °F 39.0 °F 3.9 °F 18% 30.24 in 10.0 mi SSW 17.3 mph 24.2 mph N/A   Partly Cloudy
2:52 PM 46.9 °F - 3.0 °F 16% 30.21 in 10.0 mi South 16.1 mph 26.5 mph N/A   Partly Cloudy
3:52 PM 48.0 °F - 3.0 °F 16% 30.18 in 10.0 mi South 16.1 mph 26.5 mph N/A   Partly Cloudy
4:52 PM 46.0 °F 38.8 °F 5.0 °F 19% 30.15 in 10.0 mi South 18.4 mph - N/A   Partly Cloudy
5:52 PM 43.0 °F 36.0 °F 6.1 °F 22% 30.13 in 10.0 mi South 13.8 mph 24.2 mph N/A   Partly Cloudy
6:52 PM 37.9 °F 30.5 °F 7.0 °F 28% 30.14 in 10.0 mi SSE 11.5 mph - N/A   Partly Cloudy
7:52 PM 37.0 °F 29.3 °F 8.1 °F 30% 30.13 in 10.0 mi South 11.5 mph - N/A   Partly Cloudy
8:52 PM 36.0 °F 27.5 °F 10.9 °F 36% 30.10 in 10.0 mi South 12.7 mph - N/A   Partly Cloudy
9:52 PM 34.0 °F 24.6 °F 10.9 °F 38% 30.09 in 10.0 mi South 13.8 mph - N/A   Clear
10:52 PM 32.0 °F 23.0 °F 12.0 °F 44% 30.07 in 10.0 mi South 11.5 mph - N/A   Clear
11:52 PM 32.0 °F 22.5 °F 12.0 °F 44% 30.04 in 10.0 mi South 12.7 mph - N/A   Clear